الصفحة الرئيسية
METAR-TAF:

METAR-TAF

مطار :

ساليدا, كولورادو, الولايات المتحدة

دائرة عرض: 38-32-18N, خط طول: 106-02-55W, ارتفاع: 2293 متر

مراقبة الطقس الحالي

تاريخ ووقت الإصدار 13 دقيقة قبل الساعة 15:15UTC
رياح هادئة
درجة الحرارة -7°درجة مئوية
الرطوبة 53%
ضغط 1032 hPa
الرؤية: 16.1 كم
سماء صافية

METAR: KANK 141515Z AUTO 00000KT 10SM CLR M07/M15 A3047 RMK AO1 T10691150

زمن: 08:28 (15:28 UTC)


TAF: مفقودة

أرصاد الطقس والتوقعات من أكثر من 4000 مطار (تقارير الطقس للمطار METAR والتنبؤ بالطقس بالمطارTAF).

المحطات المتاحة هي النقط الصفراء والحمراء على الخريطة.

حرك المؤشر فوق النقطة لمعرفة اسم المحطة.

ثم انقر لمعرفة أرصاد وتوقعات الطقس.

لتغيير الخارطة: اضغط على الأزرار الخضراء مع رمز الصليب الأسود للتكبير. على الزر الأخضر مع شرطة للتصغير، أو على الأسهم الخضراء للخرائط المجاورة.


METAR-TAF: